Weather History for KMPV - April, 2012

Change the Weather History Date:

Wednesday, April 25, 2012

  Actual Average Record
Temperature  
Mean Temperature 42 °F 47 °F  
Max Temperature 49 °F 58 °F 85 °F (2009)
Min Temperature 34 °F 35 °F 17 °F (1965)
Degree Days  
Heating Degree Days 23 18  
Month to date heating degree days 524 591  
Since 1 July heating degree days 6390 7616  
Cooling Degree Days 0 0  
Month to date cooling degree days 5 0  
Year to date cooling degree days 5 0  
Moisture  
Dew Point 32 °F    
Average Humidity 71    
Maximum Humidity 92    
Minimum Humidity 49    
Precipitation  
Precipitation 0.01 in 0.09 in 0.58 in (1951)
Month to date precipitation 2.50 2.19  
Year to date precipitation 6.75 9.07  
Sea Level Pressure  
Sea Level Pressure 29.79 in    
Wind  
Wind Speed 7 mph (SW)    
Max Wind Speed 18 mph    
Max Gust Speed 25 mph    
Visibility 10 miles    
Events      
T = Trace of Precipitation, MM = Missing Value Source: NWS Daily Summary

Daily Weather History Graph

Daily Weather History Graph

Search for Another Location

Airport or City:

Trip Planner

Search our weather history database for the weather conditions in past years. The results will help you decide how hot, cold, wet, or windy it might be!

Date:

Astronomy

Apr. 25, 2012 Rise Set
Actual Time 5:49 AM EDT 7:47 PM EDT
Civil Twilight 5:18 AM EDT 8:18 PM EDT
Nautical Twilight 4:40 AM EDT 8:57 PM EDT
Astronomical Twilight 3:58 AM EDT 9:39 PM EDT
Moon 8:26 AM EDT (4/25) 11:56 PM EDT (4/25)
Length of Visible Light 15h 00m
Length of Day
13h 57m
Waxing Crescent, 16% of the Moon is Illuminated
Apr 25
Waxing Crescent
Apr 29
First Quarter
May 5
Full
May 12
Last Quarter
May 20
New

Hourly Weather History & Observations

Time (EDT) Temp. Windchill Dew Point Humidity Pressure Visibility Wind Dir Wind Speed Gust Speed Precip Events Conditions
12:51 AM 37.0 °F 33.3 °F 33.1 °F 86% 29.67 in 10.0 mi SW 4.6 mph - N/A   Clear
1:51 AM 36.0 °F 30.3 °F 33.1 °F 89% 29.68 in 10.0 mi South 6.9 mph - N/A   Clear
2:51 AM 36.0 °F 31.1 °F 33.1 °F 89% 29.69 in 10.0 mi South 5.8 mph - N/A   Clear
3:51 AM 35.1 °F 29.3 °F 32.0 °F 89% 29.69 in 10.0 mi South 6.9 mph - N/A   Clear
4:51 AM 35.1 °F 31.0 °F 30.9 °F 85% 29.69 in 10.0 mi SW 4.6 mph - N/A   Scattered Clouds
5:51 AM 35.1 °F 29.3 °F 30.9 °F 85% 29.70 in 10.0 mi South 6.9 mph - N/A   Mostly Cloudy
6:51 AM 37.0 °F 30.4 °F 32.0 °F 82% 29.73 in 10.0 mi South 9.2 mph - N/A   Mostly Cloudy
7:51 AM 39.9 °F 33.4 °F 32.0 °F 73% 29.74 in 10.0 mi SSW 10.4 mph 19.6 mph N/A   Partly Cloudy
8:51 AM 42.1 °F 35.2 °F 30.9 °F 65% 29.75 in 10.0 mi SSW 12.7 mph 20.7 mph N/A   Overcast
9:51 AM 44.1 °F 40.1 °F 32.0 °F 63% 29.76 in 10.0 mi Variable 6.9 mph 17.3 mph N/A   Mostly Cloudy
10:51 AM 46.0 °F 41.0 °F 30.0 °F 54% 29.77 in 10.0 mi South 10.4 mph 25.3 mph N/A   Mostly Cloudy
11:51 AM 46.0 °F 41.9 °F 30.9 °F 56% 29.77 in 10.0 mi WSW 8.1 mph - N/A   Mostly Cloudy
12:51 PM 43.0 °F 37.2 °F 35.1 °F 74% 29.80 in 10.0 mi West 10.4 mph 16.1 mph 0.01 in   Overcast
1:51 PM 44.1 °F 39.5 °F 33.1 °F 65% 29.80 in 10.0 mi West 8.1 mph - 0.00 in   Overcast
2:51 PM 46.0 °F 43.1 °F 35.1 °F 66% 29.81 in 10.0 mi Variable 5.8 mph - 0.00 in   Overcast
3:51 PM 46.9 °F - 28.0 °F 48% 29.81 in 10.0 mi West 10.4 mph 17.3 mph N/A   Mostly Cloudy
4:51 PM 44.1 °F 39.5 °F 34.0 °F 68% 29.83 in 10.0 mi NNW 8.1 mph - 0.00 in   Overcast
5:51 PM 43.0 °F 40.3 °F 33.1 °F 68% 29.84 in 10.0 mi NE 4.6 mph - N/A   Overcast
6:51 PM 43.0 °F 40.3 °F 33.1 °F 68% 29.85 in 10.0 mi NW 4.6 mph - N/A   Overcast
7:51 PM 42.1 °F - 34.0 °F 73% 29.86 in 10.0 mi Calm Calm - N/A   Overcast
8:51 PM 41.0 °F 35.8 °F 33.1 °F 73% 29.89 in 10.0 mi NW 8.1 mph - N/A   Overcast
9:51 PM 39.9 °F - 33.1 °F 77% 29.91 in 10.0 mi Calm Calm - N/A   Overcast
10:51 PM 37.9 °F 35.5 °F 34.0 °F 86% 29.92 in 10.0 mi WSW 3.5 mph - N/A   Overcast
11:51 PM 39.0 °F 36.8 °F 33.1 °F 79% 29.92 in 10.0 mi NW 3.5 mph - N/A   Overcast